Wind_Speed
52 54 59 68 74 81 92 92 107 110 87 76 69 60 50 40 39 34 34 25 9 12 21 39 53 61 70 85 88 85 94 103 103 102 96 97 97 96 94 90 86 82 79 76 77 79 80
51 54 59 67 74 83 91 98 102 117 108 85 76 70 59 47 40 38 40 34 16 12 24 38 47 54 63 74 78 78 84 94 102 99 95 93 95 96 97 93 89 83 79 76 74 74 76
49 55 58 67 74 81 91 98 104 109 120 99 85 74 68 59 51 44 43 47 22 14 22 33 41 46 52 65 75 78 81 83 88 96 95 93 91 93 97 96 92 87 81 78 76 76 75
49 54 57 64 72 79 88 95 104 104 119 123 95 83 75 71 65 52 40 46 33 19 17 23 32 39 42 55 67 71 76 78 80 85 89 87 87 91 94 95 93 88 83 78 75 75 75
48 51 55 62 69 75 83 90 99 105 112 120 118 91 82 76 71 62 52 44 42 32 21 10 16 25 34 46 63 71 74 71 70 73 78 80 80 84 87 91 90 88 85 81 77 75 73
44 49 54 59 68 71 79 87 94 100 107 113 118 116 93 84 75 66 62 58 51 40 34 26 9 14 30 43 54 60 64 65 67 68 70 71 73 76 78 85 88 87 86 84 79 77 76
40 45 50 57 64 68 75 82 88 94 102 105 114 117 121 100 85 74 62 56 53 47 38 27 24 19 4 28 48 57 60 60 62 61 62 65 67 67 69 75 81 84 85 82 78 77 75
37 41 49 53 60 66 71 78 85 90 96 102 107 109 116 119 113 88 74 61 50 44 41 33 24 21 26 15 14 54 55 58 60 60 60 60 60 62 64 66 72 76 80 82 81 79 79
35 38 45 50 57 61 68 74 79 85 90 96 101 106 106 111 111 116 98 79 66 53 40 32 28 22 17 24 27 29 39 54 57 57 53 51 51 52 53 55 57 62 68 73 76 81 81
31 34 41 45 52 56 62 69 74 79 83 90 94 99 101 101 105 107 112 110 89 74 56 40 31 20 18 14 24 34 36 45 51 54 49 48 47 47 45 45 46 50 55 58 62 66 73
27 29 35 39 46 52 56 62 69 73 78 83 89 92 94 100 98 99 104 104 108 98 75 61 45 35 28 12 14 23 36 38 47 54 57 51 49 45 40 38 37 36 39 42 45 50 57
25 27 31 34 41 46 51 57 63 67 74 77 82 87 91 93 99 96 96 98 98 98 99 87 69 53 41 32 20 13 12 26 29 40 49 57 50 42 36 32 30 30 28 28 31 33 38
27 24 27 31 36 42 48 50 56 61 66 70 75 80 85 88 90 92 93 91 94 93 91 96 94 78 63 51 41 31 19 12 15 23 31 45 51 45 37 31 26 27 27 28 28 28 30
25 24 23 24 33 38 43 45 47 55 60 63 68 72 77 81 83 87 89 89 87 92 93 91 90 92 84 69 55 44 39 32 18 6 14 19 33 36 30 28 26 26 29 29 27 29 30
22 24 23 21 28 33 37 43 43 47 54 58 62 68 71 75 78 79 83 85 83 84 85 86 86 84 87 87 79 66 53 44 37 26 12 5 12 26 30 26 25 28 29 31 32 34 35
22 24 23 20 24 30 30 36 39 42 45 51 56 60 64 68 72 73 77 79 80 81 81 82 81 78 77 78 81 81 74 62 48 35 24 14 11 12 16 20 22 23 27 30 32 35 35
21 23 21 23 22 27 29 29 35 38 42 47 49 55 56 61 63 65 71 71 73 74 77 77 77 74 72 71 70 70 69 69 69 62 51 38 25 12 3 5 9 14 12 14 11 11 11
18 24 21 21 22 24 28 24 32 33 37 43 43 49 52 53 56 59 63 64 66 66 67 69 71 71 69 66 64 62 61 59 57 57 55 55 52 46 41 36 27 23 21 17 14 13 11
24 26 26 26 23 24 26 25 29 33 32 38 39 41 46 48 49 52 54 56 59 60 61 61 62 63 62 59 59 57 54 52 51 50 46 44 43 40 40 39 37 37 33 27 24 21 20
26 29 29 26 23 23 24 26 25 30 30 34 35 38 40 44 47 48 48 51 53 54 56 56 57 56 57 56 53 51 51 50 47 44 45 41 41 40 35 35 32 30 29 27 26 23 22
33 32 31 29 26 21 22 25 25 27 30 33 33 37 38 43 43 45 44 46 49 50 51 53 52 53 50 50 52 50 46 46 44 41 39 40 38 34 36 35 35 32 32 29 26 25 21
36 35 35 33 29 28 23 26 29 30 35 33 35 36 37 41 42 43 42 44 45 45 46 48 48 50 49 48 47 44 47 43 41 40 38 38 38 39 37 38 34 37 32 34 36 35 33
38 39 38 37 30 27 28 28 29 32 36 35 35 35 39 43 41 40 39 40 41 43 46 47 46 47 46 44 45 46 41 41 42 41 37 37 40 37 36 37 37 38 38 35 36 34 38
40 41 38 35 31 30 29 30 31 35 37 37 37 37 40 41 43 41 39 42 44 41 47 49 50 47 45 43 45 44 45 41 37 37 35 33 37 39 39 40 41 38 44 45 45 39 37
35 35 34 33 35 35 35 37 37 38 39 40 40 41 44 43 44 46 42 46 47 48 50 54 55 55 51 48 46 44 46 48 42 33 35 33 31 35 36 38 44 44 44 51 48 46 38
42 41 41 41 41 41 43 44 42 41 44 44 45 47 49 49 49 48 46 50 50 52 54 55 57 58 55 54 52 54 48 49 48 42 36 40 41 42 42 44 47 52 56 59 58 52 56
48 47 47 47 48 48 47 47 48 49 49 48 48 50 52 54 52 48 56 60 58 61 61 63 61 60 54 57 60 61 59 58 59 57 50 46 48 53 48 45 52 54 60 65 65 62 55
58 56 54 53 54 55 55 55 55 52 54 54 54 55 54 56 56 55 57 57 62 62 60 63 61 57 55 57 61 61 65 67 60 59 60 61 57 54 55 58 60 60 66 70 69 65 63
66 64 61 59 57 58 60 61 59 57 57 60 61 57 60 61 59 60 61 65 65 63 62 61 66 62 58 60 62 62 64 68 65 62 66 66 68 68 64 66 66 64 68 70 72 71 69
Wind_Direction
347 358 2 17 16 12 15 14 17 21 18 19 21 25 26 28 41 41 39 32 35 139 171 185 192 195 199 204 208 208 213 216 219 222 223 224 224 225 225 227 230 231 232 233 236 238 239
350 358 5 11 19 15 18 19 19 24 24 22 27 29 34 37 47 48 49 43 48 130 161 176 188 195 198 200 204 206 211 214 220 222 223 223 224 225 224 225 229 230 230 231 233 236 238
350 356 5 12 18 19 19 20 23 26 27 28 29 33 39 42 40 50 54 45 59 109 149 175 184 191 197 200 200 201 207 213 217 221 224 224 224 224 225 225 228 229 230 232 234 236 238
353 358 6 12 17 18 18 22 24 25 29 32 33 35 41 45 45 45 46 54 52 82 133 166 182 189 194 197 202 200 205 210 214 218 221 222 224 224 225 225 226 229 231 234 235 239 241
355 357 9 12 18 19 18 22 25 26 29 32 36 38 42 46 47 49 51 54 62 68 77 129 171 189 194 197 199 197 203 208 213 217 219 221 223 224 226 226 228 229 231 233 235 238 241
356 356 10 12 19 21 19 22 25 26 28 30 36 41 43 45 47 48 52 57 56 66 64 68 91 176 187 196 196 195 201 209 212 213 216 220 223 223 225 227 228 229 231 234 237 241 246
357 358 8 12 17 22 22 22 24 26 27 30 33 38 43 46 49 47 50 54 58 58 60 81 85 64 161 214 196 192 197 204 210 214 215 217 218 221 223 225 227 229 233 238 240 245 248
354 2 3 11 16 22 24 25 25 27 28 30 32 36 41 43 47 49 49 51 56 57 66 68 77 99 99 109 194 210 203 204 210 212 214 217 221 222 224 226 228 230 232 235 240 244 247
351 1 3 9 16 21 25 26 26 28 31 32 33 34 37 42 43 46 49 50 51 52 53 61 75 84 111 136 139 161 208 218 215 218 219 218 218 220 223 225 229 233 237 240 242 243 244
348 353 4 7 15 19 25 26 27 28 31 33 35 36 36 38 40 44 47 47 48 49 48 50 53 66 107 138 155 157 177 193 211 214 216 220 220 219 221 225 229 232 236 241 247 249 250
351 349 359 7 12 17 23 26 27 28 30 34 33 35 36 36 39 41 43 46 48 49 49 50 50 48 42 77 153 180 185 190 202 212 215 215 218 217 216 217 220 228 236 241 246 249 251
347 349 355 2 8 13 20 24 25 27 27 31 32 34 35 37 36 38 42 43 44 46 48 51 52 54 55 51 56 69 156 201 217 205 211 213 210 212 209 210 214 224 229 235 241 247 251
345 341 351 1 6 8 15 22 23 23 24 28 31 33 33 34 34 37 40 42 38 41 45 48 49 52 57 61 63 61 67 91 202 238 226 216 212 209 205 209 219 221 228 238 248 255 257
332 333 345 353 360 7 9 19 22 21 21 23 28 30 32 34 35 36 39 41 36 37 37 42 49 50 53 57 61 65 66 68 76 143 226 222 215 210 212 219 226 229 236 246 256 260 261
319 325 328 342 354 358 5 12 15 19 18 20 25 27 30 32 35 36 37 40 38 38 38 37 42 44 49 53 54 58 61 68 71 73 80 153 175 193 209 223 229 237 248 256 264 269 273
306 319 322 332 340 345 356 4 10 14 14 17 21 22 25 29 30 34 34 38 37 37 38 38 37 43 46 48 54 56 58 60 64 70 79 105 153 187 218 232 244 257 268 275 276 278 277
291 307 315 314 325 336 348 356 0 8 8 13 16 20 20 23 28 30 30 34 36 35 36 38 39 38 39 45 49 52 57 60 61 65 68 72 76 80 80 268 268 268 272 277 278 285 292
279 296 306 300 309 322 333 348 351 359 2 6 9 13 18 21 22 25 28 30 30 32 34 35 36 36 38 40 42 44 48 51 55 58 61 62 65 67 68 68 71 72 69 67 60 52 50
280 287 296 299 296 305 316 333 339 346 354 0 5 6 10 13 17 19 22 25 26 27 27 30 32 35 35 38 40 42 41 42 45 49 53 56 59 59 59 57 55 53 53 52 47 41 35
265 277 286 289 289 294 305 324 327 334 341 345 352 356 1 6 9 12 14 19 20 22 23 23 25 28 30 32 35 38 40 40 39 36 35 39 40 39 44 46 46 41 38 37 34 31 30
265 270 273 282 275 279 288 305 308 321 331 335 340 344 351 356 359 4 6 10 12 15 17 15 16 16 21 23 23 23 25 29 33 32 31 28 24 24 24 22 20 19 22 21 15 10 7
262 268 275 282 274 275 279 289 299 312 321 323 328 334 340 342 347 354 0 359 2 5 7 8 9 9 11 12 16 19 18 19 21 22 24 22 20 14 9 8 6 6 2 2 360 357 354
259 262 267 271 271 269 272 281 290 299 312 315 317 323 325 333 338 340 347 349 349 350 352 356 360 360 1 4 7 10 12 10 10 11 12 11 11 13 6 5 360 353 350 346 345 345 341
258 265 264 265 263 270 281 282 285 292 302 307 308 312 316 320 327 330 334 333 334 337 341 345 347 352 353 355 356 356 359 0 0 1 2 3 4 3 1 359 358 359 359 355 343 339 330
257 261 258 261 263 267 273 277 283 288 293 296 301 304 309 314 318 320 324 324 326 326 331 334 336 338 342 341 344 347 348 348 350 349 351 351 342 347 349 346 344 346 345 346 350 356 334
250 255 258 260 264 269 274 279 282 284 290 293 298 302 306 309 309 316 316 316 318 320 322 325 328 332 334 334 334 334 336 337 343 338 337 342 340 337 343 341 343 350 346 344 344 344 341
248 252 257 261 267 272 275 278 283 287 288 291 295 299 302 303 308 304 307 310 312 314 316 319 322 324 325 326 329 329 329 330 330 333 330 332 330 332 333 329 331 337 340 340 338 336 333
252 252 253 259 265 271 274 275 278 285 287 290 292 295 296 299 300 300 305 306 307 308 310 312 316 316 316 318 323 322 326 324 324 323 325 328 327 324 323 322 321 323 328 329 332 333 328
251 253 255 257 260 264 268 273 277 279 285 286 285 288 292 292 293 296 298 299 304 302 302 302 308 311 310 310 311 315 318 319 320 319 319 321 321 321 320 318 318 320 318 319 322 323 325
Height
10723 10713 10699 10677 10659 10640 10616 10589 10556 10517 10481 10455 10431 10411 10396 10383 10373 10369 10366 10365 10368 10373 10380 10392 10402 10416 10432 10447 10469 10492 10509 10532 10548 10566 10583 10598 10612 10625 10639 10653 10663 10673 10684 10692 10700 10708 10716
10722 10712 10699 10680 10659 10641 10618 10592 10563 10528 10491 10464 10439 10418 10403 10394 10384 10376 10373 10374 10376 10382 10387 10394 10404 10417 10429 10447 10468 10491 10507 10525 10542 10558 10573 10589 10602 10615 10631 10641 10654 10664 10673 10683 10691 10698 10705
10722 10713 10698 10682 10662 10645 10624 10597 10571 10542 10508 10474 10451 10432 10414 10403 10394 10389 10384 10385 10386 10392 10398 10403 10410 10420 10432 10449 10465 10487 10502 10518 10536 10551 10565 10579 10592 10608 10620 10632 10643 10654 10665 10675 10683 10689 10696
10722 10712 10700 10684 10666 10649 10630 10605 10581 10554 10528 10496 10466 10447 10430 10417 10411 10405 10400 10397 10398 10403 10410 10416 10422 10430 10440 10452 10469 10489 10500 10513 10528 10543 10558 10572 10585 10597 10610 10624 10636 10648 10658 10669 10676 10682 10689
10722 10712 10700 10686 10670 10654 10637 10616 10592 10569 10545 10522 10495 10468 10449 10435 10427 10422 10416 10412 10411 10414 10423 10427 10434 10441 10448 10456 10467 10482 10497 10512 10526 10540 10553 10566 10578 10591 10605 10618 10629 10641 10653 10661 10667 10674 10681
10723 10712 10702 10689 10674 10659 10645 10626 10606 10585 10561 10540 10519 10496 10471 10454 10445 10441 10435 10429 10428 10431 10433 10435 10442 10449 10453 10459 10472 10487 10502 10513 10523 10535 10548 10561 10573 10586 10599 10610 10624 10634 10644 10652 10660 10667 10673
10723 10713 10703 10692 10679 10665 10652 10636 10618 10599 10580 10558 10538 10518 10496 10478 10466 10458 10453 10450 10445 10447 10446 10448 10451 10459 10464 10469 10479 10490 10500 10511 10520 10533 10543 10555 10567 10580 10592 10603 10615 10626 10638 10647 10656 10662 10667
10722 10714 10704 10695 10683 10671 10659 10645 10629 10612 10594 10575 10556 10538 10521 10504 10492 10480 10474 10468 10464 10461 10459 10461 10464 10465 10467 10477 10488 10497 10504 10512 10520 10529 10539 10550 10563 10575 10586 10596 10608 10619 10629 10639 10647 10654 10659
10722 10716 10706 10697 10687 10676 10665 10653 10640 10625 10610 10592 10574 10554 10540 10529 10519 10504 10493 10485 10481 10477 10476 10474 10471 10473 10477 10478 10485 10493 10510 10516 10522 10528 10540 10551 10561 10572 10583 10594 10606 10616 10625 10632 10639 10644 10649
10723 10717 10710 10701 10691 10682 10672 10661 10649 10637 10623 10610 10595 10581 10568 10553 10540 10531 10513 10507 10494 10489 10489 10487 10484 10482 10481 10485 10487 10486 10498 10505 10514 10525 10538 10549 10559 10569 10581 10593 10603 10611 10619 10627 10633 10638 10642
10723 10717 10712 10705 10696 10687 10677 10667 10657 10647 10635 10621 10609 10598 10588 10576 10562 10549 10536 10532 10519 10517 10505 10498 10492 10490 10488 10488 10491 10495 10496 10503 10508 10522 10532 10542 10555 10568 10580 10590 10600 10609 10616 10622 10626 10630 10633
10722 10719 10714 10707 10700 10691 10683 10673 10665 10655 10645 10634 10622 10610 10600 10589 10579 10567 10556 10547 10545 10539 10531 10517 10505 10500 10498 10497 10499 10501 10506 10510 10512 10518 10527 10537 10552 10567 10578 10589 10597 10606 10612 10616 10619 10621 10622
10722 10718 10715 10710 10703 10695 10688 10679 10671 10663 10654 10644 10634 10624 10613 10603 10596 10587 10575 10563 10562 10555 10548 10536 10527 10517 10511 10508 10507 10508 10510 10515 10521 10527 10532 10538 10551 10567 10580 10590 10598 10603 10607 10611 10614 10615 10615
10719 10717 10714 10710 10705 10699 10691 10684 10676 10669 10660 10653 10644 10635 10628 10618 10608 10599 10590 10581 10582 10573 10564 10556 10548 10542 10533 10525 10522 10520 10520 10523 10527 10533 10540 10549 10559 10574 10584 10592 10598 10602 10605 10607 10607 10608 10608
10717 10715 10712 10709 10706 10702 10696 10689 10681 10674 10667 10659 10651 10645 10638 10630 10623 10616 10609 10599 10597 10591 10584 10576 10569 10562 10554 10545 10540 10535 10534 10534 10538 10543 10550 10559 10567 10577 10587 10593 10597 10600 10602 10602 10602 10602 10601
10715 10713 10711 10708 10705 10702 10698 10693 10686 10679 10672 10665 10658 10651 10645 10638 10632 10625 10619 10609 10607 10602 10595 10590 10583 10578 10574 10568 10563 10558 10555 10554 10553 10556 10562 10569 10577 10585 10590 10594 10597 10598 10599 10598 10598 10594 10593
10711 10710 10709 10706 10704 10701 10699 10693 10689 10682 10677 10670 10664 10658 10651 10646 10640 10635 10627 10622 10619 10613 10608 10604 10599 10594 10590 10587 10584 10581 10580 10578 10578 10577 10578 10580 10583 10587 10590 10592 10594 10593 10594 10593 10592 10590 10586
10707 10706 10706 10704 10701 10699 10697 10695 10690 10685 10680 10675 10669 10663 10658 10653 10647 10642 10637 10635 10630 10626 10621 10617 10613 10608 10606 10602 10600 10598 10597 10596 10595 10594 10594 10594 10596 10597 10597 10597 10597 10596 10595 10594 10592 10590 10588
10702 10701 10701 10701 10699 10697 10695 10692 10690 10687 10682 10678 10673 10669 10663 10658 10655 10650 10646 10642 10639 10636 10631 10628 10624 10621 10618 10615 10612 10610 10609 10607 10606 10606 10606 10606 10606 10605 10604 10603 10602 10600 10599 10596 10594 10591 10589
10695 10695 10694 10695 10695 10693 10692 10690 10687 10685 10682 10678 10674 10671 10667 10663 10659 10655 10651 10648 10645 10642 10639 10636 10633 10630 10627 10625 10622 10619 10617 10616 10615 10613 10612 10611 10610 10609 10608 10607 10605 10603 10601 10599 10597 10594 10591
10688 10688 10688 10687 10688 10688 10687 10685 10683 10682 10680 10677 10673 10671 10667 10664 10662 10658 10655 10651 10648 10645 10643 10640 10637 10635 10633 10631 10629 10627 10624 10622 10620 10618 10617 10615 10613 10611 10610 10609 10607 10605 10602 10600 10597 10595 10592
10681 10681 10681 10681 10681 10681 10681 10680 10679 10677 10675 10673 10671 10669 10667 10664 10661 10658 10655 10652 10649 10647 10645 10643 10641 10639 10635 10633 10631 10629 10626 10625 10623 10620 10618 10615 10612 10610 10609 10607 10605 10603 10601 10599 10596 10594 10590
10671 10672 10672 10672 10673 10674 10674 10674 10673 10672 10670 10667 10666 10665 10662 10660 10659 10657 10654 10651 10650 10647 10645 10643 10641 10639 10638 10635 10632 10630 10628 10625 10623 10620 10618 10615 10612 10610 10607 10605 10602 10600 10598 10596 10594 10590 10585
10661 10662 10662 10663 10664 10665 10667 10668 10668 10666 10664 10663 10661 10660 10658 10656 10654 10652 10651 10649 10647 10644 10643 10641 10639 10637 10636 10634 10632 10629 10627 10624 10622 10619 10616 10614 10612 10609 10606 10604 10602 10598 10594 10591 10587 10586 10581
10651 10652 10653 10654 10655 10656 10657 10658 10659 10659 10659 10658 10656 10655 10653 10650 10648 10647 10645 10643 10642 10640 10637 10634 10634 10633 10631 10630 10628 10626 10623 10620 10618 10616 10613 10609 10607 10605 10601 10596 10594 10592 10588 10585 10581 10576 10575
10641 10642 10643 10644 10645 10646 10647 10647 10649 10650 10650 10649 10648 10646 10645 10644 10642 10640 10637 10636 10634 10632 10631 10629 10627 10624 10622 10622 10621 10618 10616 10614 10611 10609 10607 10605 10602 10599 10597 10591 10586 10582 10578 10574 10571 10567 10563
10629 10630 10630 10632 10633 10634 10636 10637 10637 10638 10639 10638 10638 10638 10636 10634 10633 10631 10629 10628 10625 10623 10621 10620 10619 10617 10614 10612 10610 10609 10606 10604 10601 10599 10597 10596 10592 10589 10586 10583 10577 10574 10570 10565 10562 10558 10553
10618 10618 10618 10620 10620 10621 10622 10623 10625 10625 10626 10626 10626 10626 10625 10623 10623 10622 10619 10616 10614 10613 10611 10609 10609 10607 10604 10603 10601 10599 10595 10592 10590 10587 10584 10582 10580 10577 10574 10570 10567 10562 10558 10552 10551 10547 10542
10601 10604 10605 10606 10607 10608 10609 10609 10611 10612 10612 10613 10613 10613 10612 10611 10611 10611 10609 10608 10605 10602 10599 10598 10598 10595 10593 10592 10590 10588 10584 10581 10578 10574 10567 10567 10564 10565 10561 10556 10552 10552 10548 10540 10537 10534 10529